contact:dominique.lefevre@mio.osupytheas.fr, maurice.libes@osupytheas.fr, didier.mallarino@osupytheas.fr
Project:EMSO http://www.emso-fr.org/EMSO-France
Depth: 2436.0 m
Title:EMSO Ligure Ouest : Data MII capteur CSTAR
DateTime,Latitude,Longitude,Instrument_Serial,Reference_Counts,Signal_Counts,Corrected_Signal_raw_counts,Calculated_Beam_c_inverse_meters,Internal_thermistor_counts
DateTime,Latitude,Longitude,Instrument_Serial,Reference_Counts,Signal_Counts,Corrected_Signal_raw_counts,Calculated_Beam_c_inverse_meters,Internal_thermistor_counts
2024-03-28T08:50:07,42.805,6.029,CST-1368DR,4258,4335,10805,01.473,553
2024-03-28T08:53:08,42.805,6.029,CST-1368DR,4254,4331,10804,01.474,553
2024-03-28T08:56:10,42.805,6.029,CST-1368DR,4251,4334,10818,01.468,553
2024-03-28T08:59:11,42.805,6.029,CST-1368DR,4249,4329,10811,01.471,553
2024-03-28T09:02:13,42.805,6.029,CST-1368DR,4247,4325,10807,01.472,553
2024-03-28T09:05:15,42.805,6.029,CST-1368DR,4245,4321,10802,01.474,553
2024-03-28T09:08:16,42.805,6.029,CST-1368DR,4244,4322,10806,01.473,553
2024-03-28T09:11:18,42.805,6.029,CST-1368DR,4242,4320,10806,01.473,553
2024-03-28T09:14:19,42.805,6.029,CST-1368DR,4241,4320,10807,01.472,553
2024-03-28T09:17:21,42.805,6.029,CST-1368DR,4240,4315,10799,01.475,553
2024-03-28T09:20:22,42.805,6.029,CST-1368DR,4239,4317,10805,01.473,553
2024-03-28T09:23:24,42.805,6.029,CST-1368DR,4238,4313,10799,01.475,553
2024-03-28T09:26:26,42.805,6.029,CST-1368DR,4237,4313,10801,01.475,553
2024-03-28T09:29:27,42.805,6.029,CST-1368DR,4236,4312,10799,01.475,553
2024-03-28T09:32:29,42.805,6.029,CST-1368DR,4235,4311,10801,01.475,553
2024-03-28T09:35:30,42.805,6.029,CST-1368DR,4234,4310,10801,01.475,553
2024-03-28T09:38:32,42.805,6.029,CST-1368DR,4233,4307,10796,01.476,553
2024-03-28T09:41:33,42.805,6.029,CST-1368DR,4232,4311,10808,01.472,553
2024-03-28T09:44:35,42.805,6.029,CST-1368DR,4232,4310,10805,01.473,553
2024-03-28T09:47:37,42.805,6.029,CST-1368DR,4231,4308,10802,01.474,553
2024-03-28T09:50:38,42.805,6.029,CST-1368DR,4230,4305,10797,01.476,553
2024-03-28T09:53:40,42.805,6.029,CST-1368DR,4229,4305,10801,01.475,553
2024-03-28T09:56:41,42.805,6.029,CST-1368DR,4229,4306,10803,01.474,553
2024-03-28T09:59:43,42.805,6.029,CST-1368DR,4228,4306,10804,01.474,553
2024-03-28T10:02:45,42.805,6.029,CST-1368DR,4227,4303,10800,01.475,553
2024-03-28T10:05:46,42.805,6.029,CST-1368DR,4227,4302,10798,01.476,553
2024-03-28T10:08:48,42.805,6.029,CST-1368DR,4226,4302,10799,01.475,553
2024-03-28T10:11:49,42.805,6.029,CST-1368DR,4226,4301,10797,01.476,553
2024-03-28T10:14:51,42.805,6.029,CST-1368DR,4225,4298,10791,01.478,553
2024-03-28T10:17:52,42.805,6.029,CST-1368DR,4225,4300,10796,01.476,553
2024-03-28T10:20:54,42.805,6.029,CST-1368DR,4224,4299,10798,01.476,553
2024-03-28T10:23:56,42.805,6.029,CST-1368DR,4223,4298,10796,01.476,553
2024-03-28T10:26:57,42.805,6.029,CST-1368DR,4223,4293,10785,01.481,553
2024-03-28T10:29:59,42.805,6.029,CST-1368DR,4222,4295,10791,01.478,553
2024-03-28T10:33:00,42.805,6.029,CST-1368DR,4222,4298,10801,01.475,553
2024-03-28T10:36:02,42.805,6.029,CST-1368DR,4221,4296,10797,01.476,553
2024-03-28T10:39:03,42.805,6.029,CST-1368DR,4221,4296,10796,01.476,553
2024-03-28T10:42:05,42.805,6.029,CST-1368DR,4220,4295,10796,01.476,553
2024-03-28T10:45:07,42.805,6.029,CST-1368DR,4220,4296,10799,01.475,553
2024-03-28T10:48:08,42.805,6.029,CST-1368DR,4220,4295,10797,01.476,553
2024-03-28T10:51:10,42.805,6.029,CST-1368DR,4219,4294,10797,01.476,553
2024-03-28T10:54:11,42.805,6.029,CST-1368DR,4219,4291,10790,01.479,553
2024-03-28T10:57:13,42.805,6.029,CST-1368DR,4218,4293,10797,01.476,553
2024-03-28T11:00:15,42.805,6.029,CST-1368DR,4218,4292,10795,01.477,553
2024-03-28T11:03:16,42.805,6.029,CST-1368DR,4217,4290,10792,01.478,553
2024-03-28T11:06:18,42.805,6.029,CST-1368DR,4217,4282,10772,01.485,553
2024-03-28T11:09:19,42.805,6.029,CST-1368DR,4217,4283,10775,01.484,553
2024-03-28T11:12:21,42.805,6.029,CST-1368DR,4216,4288,10790,01.479,553
2024-03-28T11:15:22,42.805,6.029,CST-1368DR,4216,4287,10787,01.480,553
2024-03-28T11:18:24,42.805,6.029,CST-1368DR,4215,4289,10795,01.477,553
2024-03-28T11:21:26,42.805,6.029,CST-1368DR,4215,4285,10784,01.481,553
2024-03-28T11:24:27,42.805,6.029,CST-1368DR,4215,4287,10788,01.479,553
2024-03-28T11:27:29,42.805,6.029,CST-1368DR,4214,4285,10786,01.480,553
2024-03-28T11:30:30,42.805,6.029,CST-1368DR,4214,4285,10787,01.480,553
2024-03-28T11:33:32,42.805,6.029,CST-1368DR,4213,4262,10731,01.501,553
2024-03-28T11:36:33,42.805,6.029,CST-1368DR,4213,4264,10736,01.499,553
2024-03-28T11:39:35,42.805,6.029,CST-1368DR,4213,4262,10730,01.501,553
2024-03-28T11:42:37,42.805,6.029,CST-1368DR,4212,4265,10740,01.497,553
2024-03-28T11:45:38,42.805,6.029,CST-1368DR,4212,4264,10738,01.498,553
2024-03-28T11:48:40,42.805,6.029,CST-1368DR,4212,4265,10740,01.497,553
2024-03-28T11:51:41,42.805,6.029,CST-1368DR,4211,4263,10738,01.498,553
2024-03-28T11:54:43,42.805,6.029,CST-1368DR,4211,4262,10736,01.499,553
2024-03-28T11:57:44,42.805,6.029,CST-1368DR,4211,4264,10742,01.497,553
2024-03-28T12:00:46,42.805,6.029,CST-1368DR,4210,4265,10746,01.495,553
2024-03-28T12:03:48,42.805,6.029,CST-1368DR,4210,4265,10745,01.495,553
2024-03-28T12:06:49,42.805,6.029,CST-1368DR,4210,4265,10746,01.495,553
2024-03-28T12:09:51,42.805,6.029,CST-1368DR,4209,4268,10756,01.491,553
2024-03-28T12:12:52,42.805,6.029,CST-1368DR,4209,4264,10746,01.495,553
2024-03-28T12:15:54,42.805,6.029,CST-1368DR,4209,4265,10748,01.494,553
2024-03-28T12:18:56,42.805,6.029,CST-1368DR,4208,4264,10749,01.494,553
2024-03-28T12:21:57,42.805,6.029,CST-1368DR,4208,4265,10750,01.494,553
2024-03-28T12:24:59,42.805,6.029,CST-1368DR,4208,4264,10748,01.494,553
2024-03-28T12:28:00,42.805,6.029,CST-1368DR,4207,4262,10745,01.495,553
2024-03-28T12:31:02,42.805,6.029,CST-1368DR,4207,4264,10751,01.493,553
2024-03-28T12:34:03,42.805,6.029,CST-1368DR,4207,4261,10743,01.496,553
2024-03-28T12:37:05,42.805,6.029,CST-1368DR,4207,4262,10745,01.495,553
2024-03-28T12:40:07,42.805,6.029,CST-1368DR,4206,4259,10741,01.497,553
2024-03-28T12:43:08,42.805,6.029,CST-1368DR,4206,4262,10749,01.494,553
2024-03-28T12:46:10,42.805,6.029,CST-1368DR,4206,4263,10752,01.493,553
2024-03-28T12:49:11,42.805,6.029,CST-1368DR,4206,4261,10747,01.495,553
2024-03-28T12:52:13,42.805,6.029,CST-1368DR,4205,4262,10752,01.493,553
2024-03-28T12:55:14,42.805,6.029,CST-1368DR,4205,4263,10752,01.493,553
2024-03-28T12:58:16,42.805,6.029,CST-1368DR,4205,4260,10745,01.495,553
2024-03-28T13:01:18,42.805,6.029,CST-1368DR,4204,4261,10752,01.493,553
2024-03-28T13:04:19,42.805,6.029,CST-1368DR,4204,4252,10727,01.502,553
2024-03-28T13:07:21,42.805,6.029,CST-1368DR,4204,4261,10750,01.494,553
2024-03-28T13:10:22,42.805,6.029,CST-1368DR,4204,4256,10739,01.498,553
2024-03-28T13:13:24,42.805,6.029,CST-1368DR,4203,4261,10753,01.492,553
2024-03-28T13:16:26,42.805,6.029,CST-1368DR,4203,4264,10761,01.489,553
2024-03-28T13:19:27,42.805,6.029,CST-1368DR,4203,4258,10745,01.495,553
2024-03-28T13:22:29,42.805,6.029,CST-1368DR,4203,4259,10749,01.494,553
2024-03-28T13:25:30,42.805,6.029,CST-1368DR,4202,4259,10750,01.494,553
2024-03-28T13:28:32,42.805,6.029,CST-1368DR,4202,4256,10743,01.496,553
2024-03-28T13:31:33,42.805,6.029,CST-1368DR,4202,4256,10744,01.496,553
2024-03-28T13:34:35,42.805,6.029,CST-1368DR,4202,4257,10746,01.495,553
2024-03-28T13:37:37,42.805,6.029,CST-1368DR,4201,4256,10745,01.495,553
2024-03-28T13:40:38,42.805,6.029,CST-1368DR,4201,4258,10751,01.493,553
2024-03-28T13:43:40,42.805,6.029,CST-1368DR,4201,4257,10747,01.495,553
2024-03-28T13:46:41,42.805,6.029,CST-1368DR,4201,4257,10748,01.494,553
2024-03-28T13:49:43,42.805,6.029,CST-1368DR,4200,4258,10752,01.493,553
2024-03-28T13:52:44,42.805,6.029,CST-1368DR,4200,4259,10756,01.491,553
2024-03-28T13:55:46,42.805,6.029,CST-1368DR,4200,4257,10749,01.494,553
2024-03-28T13:58:48,42.805,6.029,CST-1368DR,4200,4257,10749,01.494,553
2024-03-28T14:01:49,42.805,6.029,CST-1368DR,4199,4256,10751,01.493,553
2024-03-28T14:04:51,42.805,6.029,CST-1368DR,4199,4255,10747,01.495,553
2024-03-28T14:07:52,42.805,6.029,CST-1368DR,4199,4253,10743,01.496,553
2024-03-28T14:10:54,42.805,6.029,CST-1368DR,4199,4256,10750,01.494,553
2024-03-28T14:13:56,42.805,6.029,CST-1368DR,4198,4257,10754,01.492,553
2024-03-28T14:16:57,42.805,6.029,CST-1368DR,4198,4256,10753,01.492,553
2024-03-28T14:19:59,42.805,6.029,CST-1368DR,4198,4256,10753,01.492,553
2024-03-28T14:23:00,42.805,6.029,CST-1368DR,4198,4255,10750,01.494,553
2024-03-28T14:26:02,42.805,6.029,CST-1368DR,4198,4255,10750,01.494,553
2024-03-28T14:29:03,42.805,6.029,CST-1368DR,4197,4254,10749,01.494,553
2024-03-28T14:32:05,42.805,6.029,CST-1368DR,4197,4253,10748,01.494,553
2024-03-28T14:35:07,42.805,6.029,CST-1368DR,4197,4256,10754,01.492,553
2024-03-28T14:38:08,42.805,6.029,CST-1368DR,4197,4255,10753,01.492,553
2024-03-28T14:41:10,42.805,6.029,CST-1368DR,4197,4251,10743,01.496,553
2024-03-28T14:44:11,42.805,6.029,CST-1368DR,4196,4251,10745,01.495,553
2024-03-28T14:47:13,42.805,6.029,CST-1368DR,4196,4254,10752,01.493,553
2024-03-28T14:50:14,42.805,6.029,CST-1368DR,4196,4251,10745,01.495,553
2024-03-28T14:53:16,42.805,6.029,CST-1368DR,4196,4253,10750,01.494,553
2024-03-28T14:56:18,42.805,6.029,CST-1368DR,4196,4256,10757,01.491,553
2024-03-28T14:59:19,42.805,6.029,CST-1368DR,4195,4253,10753,01.492,553
2024-03-28T15:02:21,42.805,6.029,CST-1368DR,4195,4255,10757,01.491,553
2024-03-28T15:05:22,42.805,6.029,CST-1368DR,4195,4233,10701,01.512,553
2024-03-28T15:08:24,42.805,6.029,CST-1368DR,4195,4248,10741,01.497,553
2024-03-28T15:11:26,42.805,6.029,CST-1368DR,4195,4252,10750,01.494,553
2024-03-28T15:14:27,42.805,6.029,CST-1368DR,4194,4253,10754,01.492,553
2024-03-28T15:17:29,42.805,6.029,CST-1368DR,4194,4250,10746,01.495,553
2024-03-28T15:20:30,42.805,6.029,CST-1368DR,4194,4254,10758,01.491,553
2024-03-28T15:23:32,42.805,6.029,CST-1368DR,4194,4253,10754,01.492,553
2024-03-28T15:26:33,42.805,6.029,CST-1368DR,4194,4253,10756,01.491,553
2024-03-28T15:29:35,42.805,6.029,CST-1368DR,4193,4252,10755,01.492,553
2024-03-28T15:32:37,42.805,6.029,CST-1368DR,4193,4252,10756,01.491,553
2024-03-28T15:35:38,42.805,6.029,CST-1368DR,4193,4254,10761,01.489,553
2024-03-28T15:38:40,42.805,6.029,CST-1368DR,4193,4250,10750,01.494,553
2024-03-28T15:41:41,42.805,6.029,CST-1368DR,4193,4246,10739,01.498,553
2024-03-28T15:44:43,42.805,6.029,CST-1368DR,4193,4249,10748,01.494,553
2024-03-28T15:47:44,42.805,6.029,CST-1368DR,4192,4251,10754,01.492,553
2024-03-28T15:50:46,42.805,6.029,CST-1368DR,4192,4248,10746,01.495,553
2024-03-28T15:53:48,42.805,6.029,CST-1368DR,4192,4248,10748,01.494,553
2024-03-28T15:56:49,42.805,6.029,CST-1368DR,4192,4247,10746,01.495,553
2024-03-28T15:59:51,42.805,6.029,CST-1368DR,4192,4247,10745,01.495,553
2024-03-28T16:02:52,42.805,6.029,CST-1368DR,4191,4250,10754,01.492,553
2024-03-28T16:05:54,42.805,6.029,CST-1368DR,4191,4250,10754,01.492,553
2024-03-28T16:08:56,42.805,6.029,CST-1368DR,4191,4246,10744,01.496,553
2024-03-28T16:11:57,42.805,6.029,CST-1368DR,4191,4245,10742,01.497,553
2024-03-28T16:14:59,42.805,6.029,CST-1368DR,4191,4245,10741,01.497,553
2024-03-28T16:18:00,42.805,6.029,CST-1368DR,4190,4247,10751,01.493,553
2024-03-28T16:21:02,42.805,6.029,CST-1368DR,4190,4247,10750,01.494,553
2024-03-28T16:24:03,42.805,6.029,CST-1368DR,4190,4248,10752,01.493,553
2024-03-28T16:27:05,42.805,6.029,CST-1368DR,4190,4247,10749,01.494,553
2024-03-28T16:30:07,42.805,6.029,CST-1368DR,4190,4245,10746,01.495,553
2024-03-28T16:33:08,42.805,6.029,CST-1368DR,4190,4241,10733,01.500,553
2024-03-28T16:36:10,42.805,6.029,CST-1368DR,4189,4247,10753,01.492,553
2024-03-28T16:39:11,42.805,6.029,CST-1368DR,4189,4244,10744,01.496,553
2024-03-28T16:42:13,42.805,6.029,CST-1368DR,4189,4246,10750,01.494,553
2024-03-28T16:45:14,42.805,6.029,CST-1368DR,4189,4244,10745,01.495,553
2024-03-28T16:48:16,42.805,6.029,CST-1368DR,4189,4242,10740,01.497,553
2024-03-28T16:51:18,42.805,6.029,CST-1368DR,4189,4244,10745,01.495,553
2024-03-28T16:54:19,42.805,6.029,CST-1368DR,4188,4242,10742,01.497,553
2024-03-28T16:57:21,42.805,6.029,CST-1368DR,4188,4244,10746,01.495,553
2024-03-28T17:00:22,42.805,6.029,CST-1368DR,4188,4244,10747,01.495,553
2024-03-28T17:03:24,42.805,6.029,CST-1368DR,4188,4242,10743,01.496,553
2024-03-28T17:06:26,42.805,6.029,CST-1368DR,4188,4242,10743,01.496,553
2024-03-28T17:09:27,42.805,6.029,CST-1368DR,4188,4240,10737,01.498,553
2024-03-28T17:12:29,42.805,6.029,CST-1368DR,4188,4243,10745,01.495,553
2024-03-28T17:15:30,42.805,6.029,CST-1368DR,4187,4241,10742,01.497,553
2024-03-28T17:18:32,42.805,6.029,CST-1368DR,4187,4242,10745,01.495,553
2024-03-28T17:21:33,42.805,6.029,CST-1368DR,4187,4243,10746,01.495,553
2024-03-28T17:24:35,42.805,6.029,CST-1368DR,4187,4241,10742,01.497,553
2024-03-28T17:27:37,42.805,6.029,CST-1368DR,4187,4243,10746,01.495,553
2024-03-28T17:30:38,42.805,6.029,CST-1368DR,4187,4242,10745,01.495,553
2024-03-28T17:33:40,42.805,6.029,CST-1368DR,4186,4241,10745,01.495,553
2024-03-28T17:36:41,42.805,6.029,CST-1368DR,4186,4239,10739,01.498,553
2024-03-28T17:39:43,42.805,6.029,CST-1368DR,4186,4240,10743,01.496,553
2024-03-28T17:42:44,42.805,6.029,CST-1368DR,4186,4239,10739,01.498,553
2024-03-28T17:45:46,42.805,6.029,CST-1368DR,4186,4236,10731,01.501,553
2024-03-28T17:48:48,42.805,6.029,CST-1368DR,4186,4239,10740,01.497,553
2024-03-28T17:51:49,42.805,6.029,CST-1368DR,4185,4240,10745,01.495,553
2024-03-28T17:54:51,42.805,6.029,CST-1368DR,4185,4241,10746,01.495,553
2024-03-28T17:57:52,42.805,6.029,CST-1368DR,4185,4240,10745,01.495,553
2024-03-28T18:00:54,42.805,6.029,CST-1368DR,4185,4241,10748,01.494,553
2024-03-28T18:03:56,42.805,6.029,CST-1368DR,4185,4242,10748,01.494,553
2024-03-28T18:06:57,42.805,6.029,CST-1368DR,4185,4236,10733,01.500,553
2024-03-28T18:09:59,42.805,6.029,CST-1368DR,4185,4241,10746,01.495,553
2024-03-28T18:13:00,42.805,6.029,CST-1368DR,4184,4243,10754,01.492,553
2024-03-28T18:16:02,42.805,6.029,CST-1368DR,4184,4240,10747,01.495,553
2024-03-28T18:19:03,42.805,6.029,CST-1368DR,4184,4240,10746,01.495,553
2024-03-28T18:22:05,42.805,6.029,CST-1368DR,4184,4240,10747,01.495,553
2024-03-28T18:25:07,42.805,6.029,CST-1368DR,4184,4243,10755,01.492,553
2024-03-28T18:28:08,42.805,6.029,CST-1368DR,4184,4240,10747,01.495,553
2024-03-28T18:31:10,42.805,6.029,CST-1368DR,4184,4238,10742,01.497,553
2024-03-28T18:34:11,42.805,6.029,CST-1368DR,4183,4240,10749,01.494,553
2024-03-28T18:37:13,42.805,6.029,CST-1368DR,4183,4236,10738,01.498,553
2024-03-28T18:40:14,42.805,6.029,CST-1368DR,4183,4241,10752,01.493,553
2024-03-28T18:43:16,42.805,6.029,CST-1368DR,4183,4240,10749,01.494,553
2024-03-28T18:46:18,42.805,6.029,CST-1368DR,4183,4240,10748,01.494,553
2024-03-28T18:49:19,42.805,6.029,CST-1368DR,4183,4239,10748,01.494,553
2024-03-28T18:52:21,42.805,6.029,CST-1368DR,4183,4238,10743,01.496,553
2024-03-28T18:55:22,42.805,6.029,CST-1368DR,4182,4240,10751,01.493,553
2024-03-28T18:58:24,42.805,6.029,CST-1368DR,4182,4236,10741,01.497,553
2024-03-28T19:01:26,42.805,6.029,CST-1368DR,4182,4238,10746,01.495,553
2024-03-28T19:04:27,42.805,6.029,CST-1368DR,4182,4232,10732,01.500,553
2024-03-28T19:07:29,42.805,6.029,CST-1368DR,4182,4237,10743,01.496,553
2024-03-28T19:10:30,42.805,6.029,CST-1368DR,4182,4236,10742,01.497,553
2024-03-28T19:13:32,42.805,6.029,CST-1368DR,4181,4235,10741,01.497,553
2024-03-28T19:16:33,42.805,6.029,CST-1368DR,4181,4234,10738,01.498,553
2024-03-28T19:19:35,42.805,6.029,CST-1368DR,4181,4232,10735,01.499,553
2024-03-28T19:22:37,42.805,6.029,CST-1368DR,4181,4235,10742,01.497,553
2024-03-28T19:25:38,42.805,6.029,CST-1368DR,4181,4236,10743,01.496,553
2024-03-28T19:28:40,42.805,6.029,CST-1368DR,4181,4234,10739,01.498,553
2024-03-28T19:31:41,42.805,6.029,CST-1368DR,4181,4235,10740,01.497,553
2024-03-28T19:34:43,42.805,6.029,CST-1368DR,4181,4234,10739,01.498,553
2024-03-28T19:37:45,42.805,6.029,CST-1368DR,4180,4234,10742,01.497,553
2024-03-28T19:40:46,42.805,6.029,CST-1368DR,4180,4232,10737,01.498,553
2024-03-28T19:43:48,42.805,6.029,CST-1368DR,4180,4233,10740,01.497,553
2024-03-28T19:46:49,42.805,6.029,CST-1368DR,4180,4222,10711,01.508,553
2024-03-28T19:49:51,42.805,6.029,CST-1368DR,4180,4237,10748,01.494,553
2024-03-28T19:52:52,42.805,6.029,CST-1368DR,4180,4238,10752,01.493,553
2024-03-28T19:55:54,42.805,6.029,CST-1368DR,4180,4238,10751,01.493,553
2024-03-28T19:58:56,42.805,6.029,CST-1368DR,4179,4233,10742,01.497,553
2024-03-28T20:01:57,42.805,6.029,CST-1368DR,4179,4235,10745,01.495,553
2024-03-28T20:04:59,42.805,6.029,CST-1368DR,4179,4235,10747,01.495,553
2024-03-28T20:08:00,42.805,6.029,CST-1368DR,4179,4232,10738,01.498,553
2024-03-28T20:11:02,42.805,6.029,CST-1368DR,4179,4236,10748,01.494,553
2024-03-28T20:14:03,42.805,6.029,CST-1368DR,4179,4229,10732,01.500,553
2024-03-28T20:17:06,42.805,6.029,CST-1368DR,4179,4235,10747,01.495,553
2024-03-28T20:20:08,42.805,6.029,CST-1368DR,4179,4234,10743,01.496,553
2024-03-28T20:23:09,42.805,6.029,CST-1368DR,4178,4231,10738,01.498,553
2024-03-28T20:26:11,42.805,6.029,CST-1368DR,4178,4233,10743,01.496,553
2024-03-28T20:29:13,42.805,6.029,CST-1368DR,4178,4235,10748,01.494,553
2024-03-28T20:32:14,42.805,6.029,CST-1368DR,4178,4234,10747,01.495,553
2024-03-28T20:35:16,42.805,6.029,CST-1368DR,4178,4235,10748,01.494,553
2024-03-28T20:38:17,42.805,6.029,CST-1368DR,4178,4228,10731,01.501,553
2024-03-28T20:41:19,42.805,6.029,CST-1368DR,4178,4233,10743,01.496,553
2024-03-28T20:44:20,42.805,6.029,CST-1368DR,4178,4233,10745,01.495,553
2024-03-28T20:47:22,42.805,6.029,CST-1368DR,4178,4232,10742,01.497,553
2024-03-28T20:50:24,42.805,6.029,CST-1368DR,4177,4233,10746,01.495,553
2024-03-28T20:53:25,42.805,6.029,CST-1368DR,4177,4224,10723,01.504,553
2024-03-28T20:56:27,42.805,6.029,CST-1368DR,4177,4232,10745,01.495,553
2024-03-28T20:59:28,42.805,6.029,CST-1368DR,4177,4231,10742,01.497,553
2024-03-28T21:02:30,42.805,6.029,CST-1368DR,4177,4234,10749,01.494,553
2024-03-28T21:05:31,42.805,6.029,CST-1368DR,4177,4229,10737,01.498,553
2024-03-28T21:08:33,42.805,6.029,CST-1368DR,4177,4233,10745,01.495,553
2024-03-28T21:11:35,42.805,6.029,CST-1368DR,4177,4225,10725,01.503,553
2024-03-28T21:14:36,42.805,6.029,CST-1368DR,4176,4227,10734,01.500,553
2024-03-28T21:17:38,42.805,6.029,CST-1368DR,4176,4231,10744,01.496,553
2024-03-28T21:20:39,42.805,6.029,CST-1368DR,4176,4229,10738,01.498,553
2024-03-28T21:23:41,42.805,6.029,CST-1368DR,4176,4232,10747,01.495,553
2024-03-28T21:26:43,42.805,6.029,CST-1368DR,4176,4230,10742,01.497,553
2024-03-28T21:29:44,42.805,6.029,CST-1368DR,4176,4230,10742,01.497,553
2024-03-28T21:32:46,42.805,6.029,CST-1368DR,4176,4232,10746,01.495,553
2024-03-28T21:35:47,42.805,6.029,CST-1368DR,4175,4230,10743,01.496,553
2024-03-28T21:38:49,42.805,6.029,CST-1368DR,4175,4229,10741,01.497,553
2024-03-28T21:41:50,42.805,6.029,CST-1368DR,4175,4228,10739,01.498,553
2024-03-28T21:44:52,42.805,6.029,CST-1368DR,4175,4229,10742,01.497,553
2024-03-28T21:47:54,42.805,6.029,CST-1368DR,4175,4231,10746,01.495,553
2024-03-28T21:50:55,42.805,6.029,CST-1368DR,4175,4233,10750,01.494,553
2024-03-28T21:53:57,42.805,6.029,CST-1368DR,4175,4229,10741,01.497,553
2024-03-28T21:56:58,42.805,6.029,CST-1368DR,4175,4229,10741,01.497,553
2024-03-28T22:00:00,42.805,6.029,CST-1368DR,4175,4230,10743,01.496,553
2024-03-28T22:03:01,42.805,6.029,CST-1368DR,4174,4223,10729,01.501,553
2024-03-28T22:06:03,42.805,6.029,CST-1368DR,4174,4230,10746,01.495,553
2024-03-28T22:09:05,42.805,6.029,CST-1368DR,4174,4227,10739,01.498,553
2024-03-28T22:12:06,42.805,6.029,CST-1368DR,4174,4230,10746,01.495,553
2024-03-28T22:15:08,42.805,6.029,CST-1368DR,4174,4231,10749,01.494,553
2024-03-28T22:18:09,42.805,6.029,CST-1368DR,4174,4224,10731,01.501,553
2024-03-28T22:21:11,42.805,6.029,CST-1368DR,4174,4223,10729,01.501,553
2024-03-28T22:24:13,42.805,6.029,CST-1368DR,4174,4223,10727,01.502,553
2024-03-28T22:27:14,42.805,6.029,CST-1368DR,4174,4226,10735,01.499,553
2024-03-28T22:30:16,42.805,6.029,CST-1368DR,4174,4226,10737,01.498,553
2024-03-28T22:33:17,42.805,6.029,CST-1368DR,4173,4228,10744,01.496,553
2024-03-28T22:36:19,42.805,6.029,CST-1368DR,4173,4226,10739,01.498,553
2024-03-28T22:39:20,42.805,6.029,CST-1368DR,4173,4227,10741,01.497,553
2024-03-28T22:42:22,42.805,6.029,CST-1368DR,4173,4227,10742,01.497,553
2024-03-28T22:45:24,42.805,6.029,CST-1368DR,4173,4229,10746,01.495,553
2024-03-28T22:48:25,42.805,6.029,CST-1368DR,4173,4221,10725,01.503,553
2024-03-28T22:51:27,42.805,6.029,CST-1368DR,4173,4226,10739,01.498,553
2024-03-28T22:54:28,42.805,6.029,CST-1368DR,4173,4225,10736,01.499,553
2024-03-28T22:57:30,42.805,6.029,CST-1368DR,4172,4225,10739,01.498,553
2024-03-28T23:00:31,42.805,6.029,CST-1368DR,4172,4225,10739,01.498,553
2024-03-28T23:03:33,42.805,6.029,CST-1368DR,4172,4226,10742,01.497,553
2024-03-28T23:06:35,42.805,6.029,CST-1368DR,4172,4226,10740,01.497,553
2024-03-28T23:09:36,42.805,6.029,CST-1368DR,4172,4220,10725,01.503,553
2024-03-28T23:12:38,42.805,6.029,CST-1368DR,4172,4223,10733,01.500,553
2024-03-28T23:15:39,42.805,6.029,CST-1368DR,4172,4216,10716,01.506,553
2024-03-28T23:18:41,42.805,6.029,CST-1368DR,4172,4220,10725,01.503,553
2024-03-28T23:21:42,42.805,6.029,CST-1368DR,4172,4224,10737,01.498,553
2024-03-28T23:24:44,42.805,6.029,CST-1368DR,4172,4223,10733,01.500,553
2024-03-28T23:27:46,42.805,6.029,CST-1368DR,4171,4227,10745,01.495,553
2024-03-28T23:30:47,42.805,6.029,CST-1368DR,4171,4221,10730,01.501,553
2024-03-28T23:33:49,42.805,6.029,CST-1368DR,4171,4220,10728,01.502,553
2024-03-28T23:36:50,42.805,6.029,CST-1368DR,4171,4219,10726,01.503,553
2024-03-28T23:39:52,42.805,6.029,CST-1368DR,4171,4223,10735,01.499,553
2024-03-28T23:42:54,42.805,6.029,CST-1368DR,4171,4223,10736,01.499,553
2024-03-28T23:45:55,42.805,6.029,CST-1368DR,4171,4221,10730,01.501,553
2024-03-28T23:48:57,42.805,6.029,CST-1368DR,4171,4224,10739,01.498,553
2024-03-28T23:51:58,42.805,6.029,CST-1368DR,4171,4224,10738,01.498,553
2024-03-28T23:55:00,42.805,6.029,CST-1368DR,4170,4222,10736,01.499,553
2024-03-28T23:58:01,42.805,6.029,CST-1368DR,4170,4222,10736,01.499,553
